• en France
  • Liste des pays
  • À 7 jours
  • Température de l'eau
  • Carte satellitaire
  • Carte météo
  • Widgets météo
  • user-avatar
    Se connecter

    Météo par heure à Kuznecy

    Ce jour, 18 Septembre, Mardi

    Heure Température Précipitation Vent Pression Humidité
    00:00 +11°C° 0 mm 4 m/s 746 mmHg 92%
    01:00 +11°C° 0 mm 4 m/s 747 mmHg 93%
    02:00 +10°C° 0 mm 3 m/s 747 mmHg 95%
    03:00 +10°C° 0 mm 3 m/s 747 mmHg 95%
    04:00 +10°C° 0 mm 3 m/s 748 mmHg 95%
    05:00 +10°C° 0 mm 3 m/s 748 mmHg 95%
    06:00 +10°C° 0 mm 3 m/s 748 mmHg 93%
    07:00 +11°C° 0 mm 3 m/s 749 mmHg 92%
    08:00 +11°C° 0 mm 3 m/s 749 mmHg 89%
    09:00 +12°C° 0 mm 3 m/s 749 mmHg 83%
    10:00 +14°C° 0 mm 3 m/s 750 mmHg 76%
    11:00 +16°C° 0 mm 3 m/s 750 mmHg 69%
    12:00 +17°C° 0 mm 3 m/s 750 mmHg 65%
    13:00 +17°C° 0 mm 3 m/s 749 mmHg 62%
    14:00 +18°C° 0 mm 3 m/s 749 mmHg 58%
    15:00 +18°C° 0 mm 3 m/s 749 mmHg 62%
    16:00 +17°C° 0 mm 2 m/s 749 mmHg 66%
    17:00 +17°C° 0 mm 2 m/s 749 mmHg 70%
    18:00 +16°C° 0 mm 2 m/s 749 mmHg 75%
    19:00 +15°C° 0 mm 2 m/s 749 mmHg 80%
    20:00 +13°C° 0 mm 2 m/s 749 mmHg 85%
    21:00 +14°C° 0.1 mm 2 m/s 749 mmHg 87%
    22:00 +14°C° 0.1 mm 2 m/s 749 mmHg 89%
    23:00 +13°C° 0.1 mm 3 m/s 749 mmHg 91%

    Demain, 19 Septembre, Mercredi

    Heure Température Précipitation Vent Pression Humidité
    00:00 +13°C° 0 mm 3 m/s 749 mmHg 93%
    01:00 +13°C° 0 mm 3 m/s 749 mmHg 94%
    02:00 +13°C° 0 mm 3 m/s 749 mmHg 95%
    03:00 +12°C° 0 mm 3 m/s 748 mmHg 95%
    04:00 +12°C° 0 mm 3 m/s 748 mmHg 95%
    05:00 +12°C° 0 mm 3 m/s 748 mmHg 95%
    06:00 +13°C° 0 mm 3 m/s 748 mmHg 91%
    07:00 +13°C° 0 mm 3 m/s 748 mmHg 87%
    08:00 +14°C° 0 mm 4 m/s 748 mmHg 83%
    09:00 +17°C° 0 mm 4 m/s 748 mmHg 76%
    10:00 +19°C° 0 mm 4 m/s 748 mmHg 69%
    11:00 +21°C° 0 mm 4 m/s 748 mmHg 61%
    12:00 +22°C° 0 mm 4 m/s 748 mmHg 59%
    13:00 +23°C° 0 mm 4 m/s 747 mmHg 57%
    14:00 +25°C° 0 mm 4 m/s 747 mmHg 55%
    15:00 +23°C° 0 mm 4 m/s 747 mmHg 59%
    16:00 +22°C° 0 mm 3 m/s 747 mmHg 64%
    17:00 +21°C° 0 mm 3 m/s 747 mmHg 69%
    18:00 +20°C° 0 mm 3 m/s 747 mmHg 73%
    19:00 +19°C° 0 mm 3 m/s 747 mmHg 78%
    20:00 +18°C° 0 mm 3 m/s 747 mmHg 82%
    21:00 +17°C° 0 mm 3 m/s 748 mmHg 86%
    22:00 +16°C° 0 mm 3 m/s 748 mmHg 89%
    23:00 +16°C° 0 mm 3 m/s 748 mmHg 93%

    Après-demain, 20 Septembre, Jeudi

    Heure Température Précipitation Vent Pression Humidité
    00:00 +14°C° 0 mm 3 m/s 748 mmHg 94%
    01:00 +14°C° 0 mm 2 m/s 749 mmHg 96%
    02:00 +13°C° 0 mm 2 m/s 749 mmHg 97%
    03:00 +13°C° 0 mm 2 m/s 749 mmHg 97%
    04:00 +13°C° 0 mm 2 m/s 749 mmHg 97%
    05:00 +12°C° 0 mm 2 m/s 749 mmHg 98%
    06:00 +13°C° 0 mm 2 m/s 750 mmHg 95%
    07:00 +14°C° 0 mm 2 m/s 750 mmHg 91%
    08:00 +15°C° 0 mm 2 m/s 750 mmHg 88%
    09:00 +17°C° 0 mm 3 m/s 750 mmHg 81%
    10:00 +19°C° 0 mm 3 m/s 750 mmHg 73%
    11:00 +20°C° 0 mm 3 m/s 750 mmHg 66%
    12:00 +21°C° 0 mm 3 m/s 750 mmHg 63%
    13:00 +22°C° 0 mm 3 m/s 750 mmHg 60%
    14:00 +24°C° 0 mm 3 m/s 750 mmHg 58%
    15:00 +22°C° 0 mm 3 m/s 750 mmHg 63%
    16:00 +21°C° 0 mm 2 m/s 750 mmHg 68%
    17:00 +20°C° 0 mm 2 m/s 750 mmHg 72%
    18:00 +19°C° 0 mm 2 m/s 750 mmHg 77%
    19:00 +18°C° 0 mm 2 m/s 750 mmHg 82%
    20:00 +16°C° 0 mm 2 m/s 750 mmHg 86%
    21:00 +16°C° 0 mm 2 m/s 750 mmHg 87%
    22:00 +16°C° 0 mm 2 m/s 750 mmHg 88%
    23:00 +16°C° 0 mm 2 m/s 750 mmHg 88%

    21 Septembre, Vendredi

    Heure Température Précipitation Vent Pression Humidité
    00:00 +15°C° 0 mm 2 m/s 750 mmHg 89%
    01:00 +15°C° 0 mm 2 m/s 750 mmHg 91%
    02:00 +15°C° 0 mm 2 m/s 750 mmHg 92%
    03:00 +15°C° 0 mm 2 m/s 750 mmHg 93%
    04:00 +15°C° 0 mm 2 m/s 750 mmHg 94%
    05:00 +15°C° 0 mm 2 m/s 749 mmHg 95%
    06:00 +16°C° 0 mm 2 m/s 749 mmHg 91%
    07:00 +17°C° 0 mm 3 m/s 750 mmHg 88%
    08:00 +18°C° 0 mm 3 m/s 750 mmHg 85%
    09:00 +20°C° 0 mm 3 m/s 749 mmHg 78%
    10:00 +22°C° 0 mm 3 m/s 749 mmHg 72%
    11:00 +23°C° 0 mm 4 m/s 749 mmHg 66%
    12:00 +25°C° 0 mm 4 m/s 749 mmHg 63%
    13:00 +26°C° 0 mm 4 m/s 748 mmHg 60%
    14:00 +27°C° 0 mm 4 m/s 748 mmHg 57%
    15:00 +26°C° 0 mm 4 m/s 748 mmHg 61%
    16:00 +25°C° 0 mm 3 m/s 747 mmHg 66%
    17:00 +24°C° 0 mm 3 m/s 747 mmHg 70%
    18:00 +22°C° 0 mm 3 m/s 747 mmHg 73%
    19:00 +21°C° 0 mm 3 m/s 747 mmHg 75%
    20:00 +20°C° 0 mm 4 m/s 746 mmHg 78%
    21:00 +19°C° 0 mm 4 m/s 746 mmHg 77%
    22:00 +19°C° 0 mm 4 m/s 746 mmHg 76%
    23:00 +18°C° 0 mm 4 m/s 746 mmHg 75%

    22 Septembre, Samedi

    Heure Température Précipitation Vent Pression Humidité
    00:00 +18°C° 0 mm 4 m/s 745 mmHg 74%
    01:00 +18°C° 0 mm 4 m/s 745 mmHg 73%
    02:00 +17°C° 0 mm 5 m/s 744 mmHg 72%
    03:00 +17°C° 0 mm 5 m/s 744 mmHg 71%
    04:00 +17°C° 0 mm 5 m/s 743 mmHg 71%
    05:00 +16°C° 0 mm 5 m/s 743 mmHg 71%
    06:00 +17°C° 0 mm 5 m/s 743 mmHg 70%
    07:00 +17°C° 0 mm 5 m/s 742 mmHg 69%
    08:00 +17°C° 0 mm 5 m/s 742 mmHg 69%
    09:00 +20°C° 0 mm 5 m/s 742 mmHg 65%
    10:00 +21°C° 0 mm 5 m/s 742 mmHg 62%
    11:00 +22°C° 0 mm 5 m/s 742 mmHg 59%
    12:00 +21°C° 0.3 mm 5 m/s 743 mmHg 63%
    13:00 +20°C° 0.3 mm 5 m/s 743 mmHg 68%
    14:00 +20°C° 0.3 mm 5 m/s 743 mmHg 72%
    15:00 +17°C° 0.7 mm 4 m/s 743 mmHg 78%
    16:00 +14°C° 0.7 mm 4 m/s 743 mmHg 84%
    17:00 +12°C° 0.7 mm 4 m/s 744 mmHg 90%
    18:00 +11°C° 0.3 mm 3 m/s 744 mmHg 91%
    19:00 +11°C° 0.3 mm 3 m/s 744 mmHg 92%
    20:00 +10°C° 0.3 mm 2 m/s 745 mmHg 93%
    21:00 +10°C° 0.3 mm 2 m/s 745 mmHg 93%
    22:00 +10°C° 0.3 mm 2 m/s 745 mmHg 94%
    23:00 +10°C° 0.3 mm 2 m/s 746 mmHg 94%

    23 Septembre, Dimanche

    Heure Température Précipitation Vent Pression Humidité
    00:00 +10°C° 0.3 mm 2 m/s 746 mmHg 94%
    01:00 +10°C° 0.3 mm 2 m/s 746 mmHg 95%
    02:00 +9°C° 0.3 mm 2 m/s 746 mmHg 95%
    03:00 +9°C° 0.4 mm 2 m/s 746 mmHg 95%
    04:00 +9°C° 0.4 mm 2 m/s 746 mmHg 95%
    05:00 +9°C° 0.4 mm 2 m/s 747 mmHg 96%
    06:00 +9°C° 0 mm 2 m/s 747 mmHg 94%
    07:00 +9°C° 0 mm 2 m/s 747 mmHg 93%
    08:00 +10°C° 0 mm 2 m/s 747 mmHg 91%
    09:00 +10°C° 0 mm 2 m/s 747 mmHg 87%
    10:00 +12°C° 0 mm 1 m/s 747 mmHg 83%
    11:00 +13°C° 0 mm 1 m/s 747 mmHg 79%
    12:00 +14°C° 0 mm 1 m/s 747 mmHg 72%
    13:00 +14°C° 0 mm 1 m/s 747 mmHg 65%
    14:00 +15°C° 0 mm 1 m/s 747 mmHg 59%
    15:00 +15°C° 0 mm 1 m/s 747 mmHg 63%
    16:00 +14°C° 0 mm 1 m/s 747 mmHg 66%
    17:00 +14°C° 0 mm 1 m/s 748 mmHg 70%
    18:00 +12°C° 0 mm 1 m/s 747 mmHg 75%
    19:00 +11°C° 0 mm 1 m/s 747 mmHg 81%
    20:00 +9°C° 0 mm 1 m/s 747 mmHg 86%
    21:00 +9°C° 0 mm 1 m/s 748 mmHg 88%
    22:00 +8°C° 0 mm 1 m/s 748 mmHg 91%
    23:00 +8°C° 0 mm 1 m/s 748 mmHg 93%
    Voir plus